Hollywood, FL

3:24 PM EDT on October 18, 2019 (GMT -0400)
North Perry

Weather History for KHWO - August, 2019

Change the Weather History Date:

Sunday, August 4, 2019

  Actual Average (KFLL) Record (KFLL)
Temperature  
Mean Temperature 84 °F -  
Max Temperature 93 °F 89 °F 100 °F (1944)
Min Temperature 75 °F 75 °F 66 °F (1937)
Cooling Degree Days 19    
Growing Degree Days 34 (Base 50)    
Moisture  
Dew Point 75 °F    
Average Humidity 82    
Maximum Humidity 94    
Minimum Humidity 54    
Precipitation  
Precipitation 3.11 in - - ()
Sea Level Pressure  
Sea Level Pressure 30.03 in    
Wind  
Wind Speed 5 mph (SSE)    
Max Wind Speed 16 mph    
Max Gust Speed 24 mph    
Visibility 9 miles    
Events Rain , Thunderstorm    
Averages and records for this station are not official NWS values.
T = Trace of Precipitation, MM = Missing Value Source: NWS Daily Summary

Daily Weather History Graph

Daily Weather History Graph

Search for Another Location

Airport or City:

Astronomy

Aug. 04, 2019 Rise Set
Actual Time 6:48 AM EDT 8:05 PM EDT
Civil Twilight 6:23 AM EDT 8:30 PM EDT
Nautical Twilight 5:54 AM EDT 8:59 PM EDT
Astronomical Twilight 5:24 AM EDT 9:29 PM EDT
Moon 10:31 AM EDT (8/4) 11:08 PM EDT (8/4)
Length of Visible Light 14h 06m
Length of Day
13h 17m
Waxing Crescent, 18% of the Moon is Illuminated
Aug 4
Waxing Crescent
Aug 7
First Quarter
Aug 15
Full
Aug 23
Last Quarter
Aug 30
New

Hourly Weather History & Observations

Time (EDT) Temp. Heat Index Dew Point Humidity Pressure Visibility Wind Dir Wind Speed Gust Speed Precip Events Conditions
12:53 AM 79.0 °F - 75.0 °F 88% 30.02 in 10.0 mi SSE 3.5 mph - N/A   Clear
1:53 AM 79.0 °F - 75.0 °F 88% 30.01 in 10.0 mi South 3.5 mph - N/A   Clear
2:53 AM 79.0 °F - 75.9 °F 90% 29.99 in 10.0 mi SE 3.5 mph - N/A   Clear
3:53 AM 79.0 °F - 75.9 °F 90% 29.99 in 10.0 mi Calm Calm - N/A   Clear
4:53 AM 79.0 °F - 75.9 °F 90% 29.99 in 10.0 mi Calm Calm - N/A   Clear
5:53 AM 79.0 °F - 75.9 °F 90% 30.00 in 10.0 mi South 3.5 mph - N/A   Clear
6:53 AM 79.0 °F - 75.9 °F 90% 30.01 in 10.0 mi South 3.5 mph - N/A   Clear
7:53 AM 80.1 °F 85.4 °F 75.9 °F 87% 30.02 in 10.0 mi WSW 3.5 mph - N/A   Clear
8:53 AM 84.0 °F 93.7 °F 77.0 °F 79% 30.04 in 10.0 mi SW 5.8 mph - N/A   Clear
9:53 AM 88.0 °F 100.2 °F 77.0 °F 70% 30.04 in 10.0 mi SSW 9.2 mph - N/A   Partly Cloudy
10:53 AM 89.1 °F 98.0 °F 73.9 °F 61% 30.04 in 10.0 mi SW 10.4 mph - N/A   Clear
11:53 AM 91.0 °F 99.3 °F 73.0 °F 55% 30.04 in 10.0 mi SW 8.1 mph - N/A   Partly Cloudy
12:53 PM 93.9 °F 105.4 °F 75.0 °F 54% 30.02 in 10.0 mi Variable 5.8 mph - N/A Thunderstorm Scattered Clouds
1:17 PM 91.0 °F 100.4 °F 73.9 °F 57% 30.02 in 10.0 mi SSE 4.6 mph - N/A   Mostly Cloudy
1:36 PM 84.9 °F 90.7 °F 72.0 °F 65% 30.02 in 10.0 mi West 16.1 mph 24.2 mph 0.00 in Rain , Thunderstorm Light Rain
1:43 PM 81.0 °F 85.8 °F 73.0 °F 77% 30.04 in 0.5 mi SSW 11.5 mph 24.2 mph 0.37 in Rain , Thunderstorm Heavy Thunderstorms and Rain
1:53 PM 78.1 °F - 72.0 °F 81% 30.03 in 0.5 mi East 4.6 mph - 1.04 in Rain , Thunderstorm Heavy Thunderstorms and Rain
2:14 PM 77.0 °F - 73.9 °F 90% 30.06 in - SSW 6.9 mph 18.4 mph 1.53 in Rain , Thunderstorm Heavy Thunderstorms and Rain
2:30 PM 75.9 °F - 73.0 °F 91% 30.05 in - ESE 9.2 mph - 1.91 in Rain , Thunderstorm Heavy Thunderstorms and Rain
2:42 PM 75.9 °F - 73.9 °F 94% 30.04 in - East 8.1 mph - 1.97 in Rain , Thunderstorm Thunderstorms and Rain
2:53 PM 77.0 °F - 73.9 °F 90% 30.04 in 3.0 mi SE 4.6 mph - 2.02 in Rain , Thunderstorm Thunderstorms and Rain
3:29 PM 77.0 °F - 73.9 °F 90% 30.04 in - East 3.5 mph - 0.01 in Rain , Thunderstorm Light Thunderstorms and Rain
3:53 PM 77.0 °F - 73.9 °F 90% 30.03 in 10.0 mi SSE 4.6 mph - 0.02 in Rain Light Rain
4:53 PM 79.0 °F - 75.0 °F 88% 30.02 in - North 3.5 mph - 0.03 in   Scattered Clouds
5:53 PM 81.0 °F 86.7 °F 75.0 °F 82% 30.02 in 10.0 mi NE 3.5 mph - N/A   Clear
6:53 PM 81.0 °F 87.3 °F 75.9 °F 85% 30.01 in 10.0 mi East 5.8 mph - N/A   Clear
7:53 PM 81.0 °F 87.3 °F 75.9 °F 85% 30.02 in 10.0 mi Calm Calm - N/A   Clear
8:53 PM 80.1 °F 85.4 °F 75.9 °F 87% 30.03 in - South 3.5 mph - N/A   Clear
9:53 PM 80.1 °F 85.4 °F 75.9 °F 87% 30.04 in - South 3.5 mph - N/A   Clear
10:53 PM 80.1 °F 85.4 °F 75.9 °F 87% 30.05 in - Calm Calm - N/A   Clear
11:53 PM 80.1 °F 85.4 °F 75.9 °F 87% 30.05 in - South 4.6 mph - N/A   Clear